Skip Page Navigation
NASA JPL Caltech
NASA Logo - Jet Propulsion Laboratory + View the NASA Portal
+ Center for Near-Earth Object Studies
JPL Home Earth Solar System Stars & Galaxies Technology
JPL Solar System Dynamics
BODIES ORBITS EPHEMERIDES TOOLS PHYSICAL DATA DISCOVERY FAQ SITE MAP
JPL Small-Body Database Browser
Search: [ help ]  
392178 (2009 KN19)
Classification: Main-belt Asteroid          SPK-ID: 2392178
Ephemeris | Orbit Diagram | Orbital Elements | Mission Design | Physical Parameters | Discovery Circumstances | Close-Approach Data ]

[ show orbit diagram ]
Orbital Elements at Epoch 2459000.5 (2020-May-31.0) TDB
Reference: JPL 12 (heliocentric ecliptic J2000)
 Element Value Uncertainty (1-sigma)   Units 
e .1307382631110938 9.4953e-08  
a 3.109399554480299 4.7029e-08 au
q 2.702882057409136 3.0464e-07 au
i 17.15417725533701 6.6673e-06 deg
node 119.6937266261788 3.073e-05 deg
peri 129.136934257383 4.3081e-05 deg
M 351.3741714571873 2.5259e-05 deg
tp 2459048.485668058406
(2020-Jul-17.98566806)
0.00014024 TDB
period 2002.68767403454
5.48
4.5436e-05
1.244e-07
d
yr
n .179758433962275 4.0782e-09 deg/d
Q 3.515917051551463 5.3178e-08 au
  Orbit Determination Parameters
   # obs. used (total)      158  
   data-arc span      4537 days (12.42 yr)  
   first obs. used      2008-01-13  
   last obs. used      2020-06-15  
   planetary ephem.      DE431  
   SB-pert. ephem.      SB431-N16  
   condition code      0  
   norm. resid. RMS      .47027  
   source      ORB  
   producer      Otto Matic  
   solution date      2020-Jun-24 06:55:17  

Additional Information
 Earth MOID = 1.72191 au 
 Jupiter MOID = 1.76608 au 
 T_jup = 3.138 
[ show covariance matrix ]

Ephemeris | Orbit Diagram | Orbital Elements | Mission Design | Physical Parameters | Discovery Circumstances | Close-Approach Data ]

Physical Parameter Table
Parameter Symbol Value Units Sigma Reference Notes
absolute magnitude H 15.7   n/a MPO434452  
diameter diameter 4.660 km 0.247 urn:nasa:pds:neowise_diameters_albedos::2.0[mainbelt] (http://adsabs.harvard.edu/abs/2011ApJ...741...68M)  
geometric albedo albedo 0.047   0.009 urn:nasa:pds:neowise_diameters_albedos::2.0[mainbelt] (http://adsabs.harvard.edu/abs/2011ApJ...741...68M)  

392178 (2009 KN19)          Discovered 2009-May-28 by Spacewatch at Kitt Peak
Reference: Last Updated: 2014-04-17

[ show close-approach data ]
Ephemeris | Orbit Diagram | Orbital Elements | Mission Design | Physical Parameters | Discovery Circumstances | Close-Approach Data ]
ABOUT SSD CREDITS/AWARDS PRIVACY/COPYRIGHT GLOSSARY LINKS
FirstGov 2020-Jul-06 00:47 UT
(server date/time)  
NASA Home Page
Site Manager:   Ryan S. Park
Webmaster  Alan B. Chamberlin